AO-07 1 07530U 74089B 26034.50227517 -.00000049 00000-0 -13404-4 0 9998 2 07530 101.9970 46.3257 0012292 27.5310 127.1262 12.53695608343764 UO-11 1 14781U 84021B 26034.63581349 .00002053 00000-0 21665-3 0 9993 2 14781 97.7889 1.8730 0006032 265.5753 94.4776 14.90372113237239 AO-27 1 22825U 93061C 26034.16380432 .00000129 00000-0 66192-4 0 9990 2 22825 98.7057 101.5348 0009252 129.6165 230.5836 14.30900640687833 FO-29 1 24278U 96046B 26034.56375478 -.00000003 00000-0 30352-4 0 9999 2 24278 98.5426 261.5924 0350885 83.1456 280.9465 13.53266403455094 GO-32 1 25397U 98043D 26034.53107714 .00000104 00000-0 65019-4 0 9993 2 25397 98.9980 23.9784 0000593 189.8824 170.2342 14.24395890432307 ISS 1 25544U 98067A 26034.56592394 .00010230 00000-0 19757-3 0 9996 2 25544 51.6309 241.0439 0011068 60.8200 299.3894 15.48366668551043 NO-44 1 26931U 01043C 26033.98358421 .00000155 00000-0 88839-4 0 9994 2 26931 67.0489 231.3694 0007059 266.6155 93.4139 14.31891180271237 SO-50 1 27607U 02058C 26034.48894854 .00001893 00000-0 24175-3 0 9995 2 27607 64.5526 182.5321 0074237 286.8699 72.4275 14.82639606244636 CO-55 1 27844U 03031E 26034.49149959 .00000381 00000-0 18433-3 0 9991 2 27844 98.6772 44.7182 0009054 208.2248 151.8442 14.24235794172642 CO-57 1 27848U 03031J 26034.48377408 .00000316 00000-0 15816-3 0 9996 2 27848 98.6801 44.5306 0008661 227.7020 132.3425 14.23535418172350 RS-22 1 27939U 03042A 26034.63042576 .00001800 00000-0 28734-3 0 9993 2 27939 98.3391 215.2524 0010950 337.9240 112.1583 14.73152198195882 CO-58 1 28895U 05043F 26034.66562825 .00002373 00000-0 38448-3 0 9994 2 28895 98.2772 187.6636 0013163 268.9293 91.0405 14.72159963 82106 CO-65 1 32785U 08021C 26034.60975358 .00007991 00000-0 52484-3 0 9996 2 32785 97.8157 13.4986 0010849 117.4853 242.7479 15.07856213965054 CO-66 1 32791U 08021J 26034.48164572 .00019703 00000-0 73306-3 0 9997 2 32791 97.7483 26.5409 0005531 74.4728 285.7120 15.27531158966840 RS-30 1 32953U 08025A 26034.58495421 .00000107 00000-0 70227-3 0 9999 2 32953 82.4997 78.5515 0018448 240.9692 118.9539 12.43174836803096 SRMSAT 1 37841U 11058D 26034.55162808 .00000464 00000-0 10783-3 0 9994 2 37841 19.9708 148.3197 0011639 173.2327 284.5963 14.11534263738912 ZACUBE-1 1 39417U 13066B 26034.37807230 .00008504 00000-0 67867-3 0 9999 2 39417 97.8164 356.0421 0041165 338.4489 21.5000 14.99870845660665 Delfi-N3xt 1 39428U 13066N 26034.30727693 .00011743 00000-0 10712-2 0 9993 2 39428 97.8355 314.9403 0075937 292.5259 66.7935 14.93045727654636 GOMX-1 1 39430U 13066Q 26034.63171365 .00003865 00000-0 58722-3 0 9991 2 39430 97.6575 243.4584 0130297 145.8804 215.0865 14.68944588650300 LO-74 1 39440U 13066AA 26034.31004873 .00004743 00000-0 45113-3 0 9992 2 39440 97.8772 342.9536 0060530 110.4829 250.2901 14.92535778657012 AO-73 1 39444U 13066AE 26034.39204065 .00012652 00000-0 83145-3 0 9994 2 39444 97.8133 3.3806 0036408 300.4204 59.3427 15.07195789659496 DTUSAT-2 1 40030U 14033W 26034.53781026 .00009640 00000-0 55195-3 0 9992 2 40030 98.0807 24.0349 0007489 344.6637 15.4365 15.12841224632469 EO-80 1 40032U 14033Y 26034.47857729 .00009874 00000-0 56341-3 0 9994 2 40032 98.0692 23.2942 0005595 272.3963 87.6626 15.12967890632434 LILACSAT-2 1 40908U 15049K 26034.62841491 .00019213 00000-0 38532-3 0 9990 2 40908 97.4853 66.6955 0008301 30.4527 329.7203 15.46713342575075 Horyu-4 1 41340U 16012D 26034.42720993 .00066832 00000-0 87594-3 0 9994 2 41340 30.9926 306.5846 0002600 31.9558 328.1250 15.57233340549758 Lapan A3 1 41603U 16040E 26034.60811785 .00004448 00000-0 14580-3 0 9997 2 41603 97.1454 35.2669 0012052 128.0055 232.2278 15.32066625534350 CAS-2T 1 41847U 16066G 26034.48556277 .00002069 00000-0 29892-3 0 9992 2 41847 98.3952 111.7026 0343256 174.9425 185.5384 14.44338695485496 TechnoSat 1 42829U 17042E 26034.43320845 .00004654 00000-0 34040-3 0 9996 2 42829 97.4094 197.4012 0017806 184.7705 175.3355 15.03947318466598 AO-91 1 43017U 17073E 26034.54498167 .00009680 00000-0 44173-3 0 9997 2 43017 97.4906 264.5710 0159397 69.3378 292.4860 15.10092460445201 S-Net D 1 43186U 18014G 26034.60212580 .00007343 00000-0 39460-3 0 9997 2 43186 97.5474 300.2899 0010076 115.0337 245.1942 15.15152313438521 S-Net B 1 43187U 18014H 26034.61107054 .00007604 00000-0 40873-3 0 9998 2 43187 97.5478 300.2810 0010765 111.5642 248.6739 15.15124329438522 S-Net A 1 43188U 18014J 26034.66765772 .00007240 00000-0 38894-3 0 9997 2 43188 97.5488 300.5222 0010698 111.8701 248.3670 15.15159217438534 S-Net C 1 43189U 18014K 26034.61425018 .00007684 00000-0 41291-3 0 9996 2 43189 97.5504 300.5230 0012128 106.5484 253.7081 15.15116345437071 Ten-Koh 1 43677U 18084G 26034.47389779 .00003690 00000-0 28490-3 0 9991 2 43677 98.0714 221.2398 0009149 206.0121 154.0644 15.02194819396080 PO-101 1 43678U 18084H 26034.63159175 .00001531 00000-0 12900-3 0 9996 2 43678 98.1067 225.2680 0008154 233.5096 126.5375 14.99789864396194 QO-100 1 43700U 18090A 26034.56408609 .00000000 00000-0 00000-0 0 9995 2 43700 0.0137 118.6007 0002361 238.4301 5.5656 1.00269275 26336 MinXSS-2 1 43758U 18099A 26034.19370982 .00031637 00000-0 84596-3 0 9993 2 43758 97.4703 107.3695 0009095 34.5282 325.6552 15.37966378393476 AO-95 1 43770U 18099N 26034.10484618 .00013642 00000-0 57422-3 0 9994 2 43770 97.4586 95.0296 0010588 99.3573 260.8862 15.23440273392783 SNUSat 2 1 43782U 18099AA 26034.56193774 .00011301 00000-0 53469-3 0 9994 2 43782 97.4262 90.0820 0011765 49.3772 310.8484 15.19467797392724 SnugLite 1 43784U 18099AC 26034.40661972 .00013615 00000-0 56679-3 0 9995 2 43784 97.4078 90.1771 0004045 58.7410 301.4223 15.23856539392923 ITASat 1 1 43786U 18099AE 26034.41706898 .00008779 00000-0 44529-3 0 9991 2 43786 97.4238 88.6415 0014613 98.5888 261.7002 15.17078298392613 EAGLET 1 1 43790U 18099AJ 26034.07314825 .00004857 00000-0 28806-3 0 9996 2 43790 97.4440 87.2637 0013017 89.7889 270.4833 15.11744415392067 ESEO 1 43792U 18099AL 26034.58761988 .00002567 00000-0 19086-3 0 9996 2 43792 97.4173 77.6032 0013530 72.1230 288.1470 15.03766006391726 JO-97 1 43803U 18099AX 26034.40728098 .00018625 00000-0 66354-3 0 9997 2 43803 97.4329 97.1043 0006769 36.6169 323.5532 15.28957998393154 Suomi 100 1 43804U 18099AY 26034.11397577 .00014618 00000-0 58762-3 0 9992 2 43804 97.4395 95.2005 0011349 39.7444 320.4623 15.24968247392965 ISAT 1 43879U 18111D 26033.51452035 .00055585 00000-0 10995-2 0 9996 2 43879 97.5913 320.4720 0009190 77.2523 282.9752 15.46881531390234 UWE-4 1 43880U 18111E 26034.33972350 .00030913 00000-0 83449-3 0 9999 2 43880 97.5872 317.4461 0012030 86.2702 273.9917 15.37645952390153 Sparrow 1 43881U 18111F 26034.25201284 .00061004 00000-0 10838-2 0 9998 2 43881 97.6110 325.3502 0008058 98.6086 261.6078 15.49956275390485 Prox-1 1 44339U 19036A 26034.01815071 .00016854 00000-0 18091-2 0 9995 2 44339 23.9955 288.0826 0006904 284.1289 75.8442 14.86906944353456 Taurus 1 1 44530U 19059C 26034.67208333 .00011596 00000-0 19297-2 0 9999 2 44530 98.6256 191.4955 0008333 10.9825 349.1560 14.70213070339019 TO-108 1 44881U 19093C 26034.62045584 .00001550 00000-0 18207-3 0 9998 2 44881 97.7681 110.0549 0013902 160.9637 199.2101 14.86257819331575 FloripaSat 1 1 44885U 19093G 26034.61755885 .00009434 00000-0 72024-3 0 9999 2 44885 97.7904 128.0588 0011940 157.6538 202.5209 15.02147392332584 RS-44 1 44909U 19096E 26034.55202898 .00000026 00000-0 49733-4 0 9993 2 44909 82.5175 68.5106 0218653 96.8219 265.7812 12.79746817285257 SALSAT 1 46495U 20068K 26034.48477916 .00010160 00000-0 38041-3 0 9992 2 46495 97.8823 29.6576 0011930 57.5986 302.6405 15.27442654294933 CSS (TIANHE-1) 1 48274U 21035A 26034.52706412 .00018163 00000-0 22908-3 0 9991 2 48274 41.4674 55.7893 0006165 350.4992 9.5728 15.59144861272275 CUTE 1 49263U 21088D 26034.53829953 .00046610 00000-0 49857-3 0 9995 2 49263 97.4276 124.9087 0004596 79.1531 281.0245 15.63742231241533 TeikyoSat 4 1 49396U 21102B 26034.52587366 .00002202 00000-0 14311-3 0 9993 2 49396 97.3835 69.1356 0013229 39.3189 320.8998 15.08941785232563 Z-Sat 1 49399U 21102E 26034.62183654 .00007867 00000-0 39920-3 0 9994 2 49399 97.3511 73.9762 0017016 359.5267 0.5947 15.17062724233185 KOSEN 1 1 49402U 21102H 26034.35767305 .00009000 00000-0 36608-3 0 9991 2 49402 97.3391 79.1681 0013272 326.1636 33.8754 15.24673711233619 HO-113 1 50466U 21131B 26034.62438972 .00000970 00000-0 31408-3 0 9990 2 50466 98.5004 127.7717 0004991 130.9523 229.2099 14.41204250215876 SNUGLITE 2 1 52899U 22065F 26034.63686356 .00001522 00000-0 29921-3 0 9992 2 52899 98.1973 179.8914 0008614 85.0358 275.1827 14.64027945191453 UmKA 1 (RS40S) 1 57172U 23091G 26034.58795134 .00008114 00000-0 38955-3 0 9991 2 57172 97.5250 93.8318 0012325 220.8741 139.1570 15.19059248143717 CubeBel-2 (EU11S) 1 57175U 23091K 26034.61292666 .00014546 00000-0 57226-3 0 9998 2 57175 97.5246 96.8480 0009744 220.6796 139.3715 15.25709131143912 RS-38S 1 57189U 23091Z 26034.60451293 .00018960 00000-0 62593-3 0 9992 2 57189 97.5270 101.7552 0008045 179.2358 180.8896 15.31423178144212 SONATE-2 1 59112U 24043Q 26034.63644387 .00035818 00000-0 66781-3 0 9993 2 59112 97.5359 178.0109 0008253 336.9243 23.1635 15.48698778107159 MO-122 1 60209U 24125G 26034.52819773 .00040410 00000-0 70453-3 0 9999 2 60209 97.2484 250.0810 0013687 357.2994 2.8182 15.50517401 88773 GRBBeta 1 60237U 24128C 26034.17123351 .00005733 00000-0 39974-3 0 9996 2 60237 61.9924 326.0495 0054204 106.9866 253.7176 15.05377014 86087 Curium One 1 60242U 24128H 26034.32816947 .00011265 00000-0 67780-3 0 9992 2 60242 61.9811 319.0575 0054019 104.0039 256.7070 15.10050446 86229 ROBUSTA-3A 1 60243U 24128J 26034.22323626 .00011772 00000-0 72079-3 0 9999 2 60243 61.9888 321.2041 0054613 101.3288 259.3950 15.09355271 86186 CatSat 1 60246U 24125J 26034.01704115 .00045210 00000-0 92973-3 0 9991 2 60246 97.2253 245.9940 0029571 319.5999 40.3054 15.45356757 86581 HYPERVIEW-1G (RS66S) 1 61772U 24199AP 26034.60049613 .00056523 00000-0 88344-3 0 9993 2 61772 97.3147 269.8870 0011139 52.5619 307.6647 15.53539400113800 AO-123 1 61781U 24199AY 26034.62350058 .00011652 00000-0 36288-3 0 9997 2 61781 97.3202 264.5303 0015959 69.1740 291.1210 15.33305449113443 HADES-R (SO-124) 1 62690U 25009CK 26032.99082620 .05664363 23962-5 28116-2 0 9998 2 62690 97.3536 123.7794 0009923 302.1245 57.9081 16.20799086 58844 HYDRA-T 1 62692U 25009CM 26028.19742799 .10589489 24473-5 20739-2 0 9999 2 62692 97.3569 119.0624 0010828 297.3030 62.7162 16.31546071 58115 JINJUSat 1B 1 63210U 25052A 26034.44733624 .00019293 00000-0 69015-3 0 9992 2 63210 97.4170 291.3440 0003129 165.3505 194.7826 15.28832926 49630 NUSHSAT 1 1 63211U 25052B 26034.26957727 .00022701 00000-0 77643-3 0 9999 2 63211 97.4150 291.3735 0002882 167.7687 192.3624 15.30264154 49622 TEVEL2-4 1 63213U 25052D 26034.49260904 .00019898 00000-0 69898-3 0 9996 2 63213 97.4073 291.0320 0001646 172.9805 187.1459 15.29423927 49645 TEVEL2-5 1 63214U 25052E 26034.43564745 .00020121 00000-0 70903-3 0 9991 2 63214 97.4067 290.9546 0001652 171.6566 188.4702 15.29319419 49638 TEVEL2-6 1 63215U 25052F 26034.24822677 .00020716 00000-0 73100-3 0 9994 2 63215 97.4073 290.7545 0001684 176.7075 183.4176 15.29267944 49601 TEVEL2-1 1 63217U 25052H 26034.23749943 .00019634 00000-0 70117-3 0 9991 2 63217 97.4049 290.5088 0001218 201.0424 159.0766 15.28887177 49596 TEVEL2-3 1 63218U 25052J 26034.43215446 .00020002 00000-0 71339-3 0 9998 2 63218 97.4050 290.7114 0001183 201.3892 158.7299 15.28925811 49623 TEVEL2-2 1 63219U 25052K 26034.43454242 .00020041 00000-0 71541-3 0 9996 2 63219 97.4051 290.7056 0001241 206.3650 153.7527 15.28896600 49624 TEVEL2-9 1 63237U 25052AD 26034.18912955 .00020291 00000-0 76074-3 0 9991 2 63237 97.4110 290.0887 0004631 256.2640 103.8083 15.27269984 49546 TEVEL2-7 1 63238U 25052AE 26034.27438710 .00019203 00000-0 72429-3 0 9995 2 63238 97.4111 290.1354 0004732 255.5777 104.4937 15.27082593 49558 TEVEL2-8 1 63239U 25052AF 26034.21536083 .00018959 00000-0 71572-3 0 9997 2 63239 97.4108 290.0588 0004765 256.9045 103.1662 15.27055713 49546 HYDRA-W 1 63490U 25052BL 26034.51424997 .00115092 00000-0 18816-2 0 9996 2 63490 97.4011 294.4102 0003083 207.6343 152.4746 15.52121122 49876 HADES-ICM (SO-125) 1 63492U 25052BN 26033.95191145 .00094639 00000-0 17677-2 0 9998 2 63492 97.4022 293.3634 0003463 229.7496 130.3452 15.48414396 49753 Dragonfly 1 65729U 98067XH 26031.05194254 .08662331 12285-4 96629-3 0 9997 2 65729 51.6000 237.6139 0006569 265.0285 94.9990 16.36242872 20999 RSP-03 1 65732U 98067XL 26034.53636242 .00558295 13872-3 14023-2 0 9999 2 65732 51.6167 223.4903 0005522 250.4003 109.6408 15.95057000 21500 BOTAN 1 65942U 98067XP 26034.53684974 .00297373 00000-0 14400-2 0 9999 2 65942 51.6184 229.5572 0005489 236.9526 123.0949 15.81104541 18168 CEVROSAT1 1 66309U 25248S 26034.23438941 .00006479 00000-0 31827-3 0 9994 2 66309 45.4049 119.1214 0002813 346.8033 13.2779 15.18866374 14139 SPIRONE 1 66657U 25274H 26034.30140669 .00003250 00000-0 31882-3 0 9999 2 66657 97.7431 325.6270 0014052 97.9972 262.2842 14.92838284 10245 K-HERO 1 66660U 25274L 26034.34558071 .00003471 00000-0 33598-3 0 9998 2 66660 97.7433 325.7285 0015830 102.4894 257.8098 14.93311769 10257 SNUGLITE-III DURI 1 66661U 25274M 26034.33965334 .00002686 00000-0 26046-3 0 9999 2 66661 97.7429 325.7337 0016372 103.6894 256.6150 14.93415531 10254 SilverSat 1 66909U 98067XV 26034.57924955 .00114116 00000-0 12842-2 0 9994 2 66909 51.6256 238.1341 0002842 191.1942 168.8989 15.61702446 9848 SAKHACUBE-CHOLBON 1 67290U 25313AU 26034.44012825 .00012231 00000-0 53677-3 0 9999 2 67290 97.4073 111.3385 0011063 105.4334 254.8125 15.22041294 5618 QMR-KWT 1 67291U 25313AV 26034.43764568 .00017374 00000-0 75480-3 0 9996 2 67291 97.4072 111.3416 0010767 105.1593 255.0835 15.22308609 5614 IO-86 1 40931U 25360.30710720 .00000000 00000-0 12800-3 0 00 2 40931 6.0006 332.5373 0012733 338.8432 8.1437 14.79075515 01